Preview of NWS' New Version of Forecast
This preview is not operational and should not be used for support decisions.

Regional Weather Roundup (RWR)

Issued by National Weather Service (NWS)

                            
000
ASUS42 KTBW 250716
RWRFL 
FLORIDA REGIONAL WEATHER ROUNDUP
NATIONAL WEATHER SERVICE TAMPA BAY RUSKIN FL
300 AM EDT MON MAR 25 2019

NOTE: "FAIR" INDICATES FEW OR NO CLOUDS BELOW 12,000 FEET WITH NO
SIGNIFICANT WEATHER AND/OR OBSTRUCTIONS TO VISIBILITY.

FLZ001>010-012>015-112-114-115-250800-
PANHANDLE FLORIDA
  
CITY           SKY/WX    TMP DP  RH WIND       PRES   REMARKS
PENSACOLA      FAIR      60  58  92 SW3       30.11F                  
PENSACOLA NAS  FAIR      55  55 100 SW3       30.10F                  
MILTON NAS     FOG       52  52 100 CALM      30.11  VSB 3/4          
CRESTVIEW      FAIR      45  43  93 CALM      30.13F                  
PANAMA CITY    FAIR      50  47  89 CALM      30.12F                  
APALACHICOLA   FOG       54  52  93 CALM      30.12F VSB 1/4          

STATION/POSITION SKY/WX   TEMP    WIND        PRES    WAVE   SWELL
                          AIR SEA DIR/SP/G            HT/PER HT/PER
                          (F)     (DEG/KT/KT) (MB)    (FT/S) (FT/S)
30.1N   87.6W              66     190/  8/ 10 1020.0F   1
29.2N   88.2W                     180/  6/  8 1020.4F   1/ 4
PANAMA CITY BEAC           64 66  200/  5/  7 1020.4F
TOWER C                    65     180/  7/  7 1020.4F

$$
FLZ011-016>038-118-127-128-134-139-239-250800-
NORTH FLORIDA
  
CITY           SKY/WX    TMP DP  RH WIND       PRES   REMARKS
MARIANNA       FAIR      53  50  89 W5        30.11F                  
TALLAHASSEE    CLOUDY    49  47  93 CALM      30.13F                  
PERRY          FOG       51  50  97 CALM      30.15S VSB 1/4          
LIVE OAK       CLOUDY    52  52 100 CALM      30.13F                  
CROSS CITY     FAIR      50  49  94 CALM      30.15F                  
LAKE CITY      FAIR      52  48  87 CALM      30.14F                  
GAINESVILLE    CLOUDY    60  53  77 CALM      30.17F                  
WILLISTON        N/A    N/A N/A N/A MISG        N/A                   
PALATKA        CLOUDY   N/A N/A N/A CALM      30.16F                  
MAYPORT NAS    MOCLDY    60  57  89 CALM      30.15F                  
JACKSONVILLE   FAIR      56  53  90 CALM      30.14F                  
JAX NAS        MOCLDY    65  55  70 CALM      30.16F                  
JAX CECIL      CLOUDY   N/A N/A N/A CALM      30.15F                  
FERNANDINA BEA MOCLDY    59  56  88 CALM      30.15F                  
ST AUGUSTINE   MOCLDY    61  57  87 SW5       30.17F                  
PALM COAST     MOCLDY    59  57  92 CALM      30.16S                  

STATION/POSITION SKY/WX   TEMP    WIND        PRES    WAVE   SWELL
                          AIR SEA DIR/SP/G            HT/PER HT/PER
                          (F)     (DEG/KT/KT) (MB)    (FT/S) (FT/S)
SHELL POINT      NOT AVBL
KEATON BEACH               56      60/  3/  3 1020.8F
CEDAR KEY                  64      80/  6/  8 1021.3F
FERNANDINA                 63 64     CALM     1021.7F
30.7N   81.3W                 63                N/A     2/10
MAYPORT                    63 64  240/  3/  3 1021.0F
31.4N   80.9W              64 62  190/  4/  6 1020.9F   2/ 5   2/ 5
ST AUGUSTINE               63 66  240/  7/  9 1021.4F

$$
FLZ040-043>046-052-053-057-058-063-144-250800-
INTERIOR CENTRAL FLORIDA
  
CITY           SKY/WX    TMP DP  RH WIND       PRES   REMARKS
LEESBURG       FAIR      63  57  81 S5        30.16F                  
SANFORD        CLOUDY    66  58  75 S6        30.15F                  
ORLANDO EXEC   FAIR      62  56  80 SE3       30.15F                  
ORLANDO INTL   FAIR      63  56  78 CALM      30.16F                  
KISSIMMEE      FAIR      61  58  90 CALM      30.17F                  
WINTER HAVEN   FAIR      65  59  81 SE3       30.16F                  
BARTOW         FAIR      61  59  94 SE6       30.14F                  
SEBRING        CLOUDY    67  61  81 SE7       30.15F                  
OKEECHOBEE     FAIR      57  55  94 CALM      30.15F                  

$$
FLZ041-047-054-059-064-141-147-250800-
EAST CENTRAL FLORIDA
  
CITY           SKY/WX    TMP DP  RH WIND       PRES   REMARKS
DAYTONA BEACH  MOCLDY    61  61 100 S3        30.16F                  
DELAND         FAIR      61  57  88 CALM      30.15F                  
MELBOURNE      FAIR      60  55  83 CALM      30.15F                  
VERO BEACH     FAIR      60  57  89 CALM      30.15F                  
FT PIERCE      MOCLDY    60  57  89 CALM      30.14F                  

STATION/POSITION SKY/WX   TEMP    WIND        PRES    WAVE   SWELL
                          AIR SEA DIR/SP/G            HT/PER HT/PER
                          (F)     (DEG/KT/KT) (MB)    (FT/S) (FT/S)
28.5N   80.2W              74     150/ 12/ 16 1021.3F   3/ 9   2/ 9
28.9N   78.5W              73 74  140/ 12/ 16 1022.0F   4/ 5   2/ 9
TRIDENT PIER               67 68  140/  5/  6 1022.0F
28.4N   80.5W                 68                N/A     2/ 4
27.5N   80.2W                 71                N/A     3/11   2/11

$$
FLZ050-056-061-142-242-148-248-149-249-151-251-155-255-
160-260-250800-
WEST CENTRAL FLORIDA
  
CITY           SKY/WX    TMP DP  RH WIND       PRES   REMARKS
CRYSTAL RIVER  MOCLDY    55  52  88 CALM      30.15F                  
INVERNESS      FAIR      54  54 100 CALM      30.16S                  
BROOKSVILLE    MOCLDY    54  52  93 CALM      30.16F                  
CLEARWATER AIR FAIR      61  55  82 CALM      30.15S                  
ST PETE CLEARW FAIR      64  58  80 E5        30.14F                  
TAMPA INTL     FAIR      67  58  72 E3        30.15F                  
TAMPA EXEC     FAIR      55  55 100 CALM      30.15F                  
PLANT CITY     FAIR      64  59  82 SE3       30.17F                  
PETER O KNIGHT CLOUDY    68  63  83 SE3       30.15F                  
ST PETERSBURG  MOCLDY    69  61  75 SE8       30.13F                  
SARASOTA       CLOUDY    66  60  81 SE9       30.11F                  
VENICE         CLOUDY    68  63  83 E6        30.14F                  

STATION/POSITION SKY/WX   TEMP    WIND        PRES    WAVE   SWELL
                          AIR SEA DIR/SP/G            HT/PER HT/PER
                          (F)     (DEG/KT/KT) (MB)    (FT/S) (FT/S)
27.3N   84.2W                 73                N/A     2/ 5
CLEARWATER BEACH           67 70  360/  4/  4 1020.9F
MIDDLE TAMPA BAY           67     110/  5/  8 1020.7F
VENICE                     68 71  110/  7/  9 1020.2F

$$
FLZ066-069-070-075>078-162-262-165-265-250800-
SOUTHWEST FLORIDA AND KEYS
  
CITY           SKY/WX    TMP DP  RH WIND       PRES   REMARKS
PUNTA GORDA    FAIR      63  59  87 SE3       30.15F                  
FT MYERS       FAIR      65  60  84 CALM      30.13F                  
SOUTHWEST INTL FAIR      65  60  84 NE5       30.13F                  
NAPLES         FAIR      67  62  84 SE3       30.12F                  
MARCO ISLAND   FAIR      64  61  90 E5        30.13F                  
IMMOKALEE      FAIR      63  59  88 E5        30.11F                  
MARATHON       FAIR      76  64  66 E7        30.10F                  
KEY WEST NAS   FAIR      75  65  70 E10       30.10F                  
KEY WEST INTL  FAIR      75  67  76 E8        30.10F                  

STATION/POSITION SKY/WX   TEMP    WIND        PRES    WAVE   SWELL
                          AIR SEA DIR/SP/G            HT/PER HT/PER
                          (F)     (DEG/KT/KT) (MB)    (FT/S) (FT/S)
NAPLES                     70 73  100/  2/  5 1020.1F
DRY TORTUGAS               75     110/ 14/ 17 1018.9F
SAND KEY                   75                 1019.2F
SOMBRERO KEY               75                 1018.6F
MOLASSES REEF              75 78  110/ 11/ 12 1020.3F

$$
FLZ067-068-071>074-168-172>174-250800-
SOUTHEAST FLORIDA 
  
CITY           SKY/WX    TMP DP  RH WIND       PRES   REMARKS
W PALM BEACH   MOCLDY    73  61  65 SE7       30.14F                  
FT LAUDER-EXEC FAIR      72  59  63 SE5       30.12F                  
FT LAUDERDALE  FAIR      72  60  66 SE7       30.12F                  
POMPANO BEACH  FAIR      73  59  61 E8        30.12F                  
PEMBROKE PINES FAIR      67  59  75 CALM      30.14F                  
OPA LOCKA      FAIR      70  61  73 NE3       30.13F                  
MIAMI          FAIR      70  61  73 E6        30.12F                  
WEST KENDALL   FAIR      65  62  90 CALM      30.12F                  
HOMESTEAD      NOT AVBL                                               

STATION/POSITION SKY/WX   TEMP    WIND        PRES    WAVE   SWELL
                          AIR SEA DIR/SP/G            HT/PER HT/PER
                          (F)     (DEG/KT/KT) (MB)    (FT/S) (FT/S)
PORT EVERGLADES            74     110/  4/ 10 1020.1F
VIRGINIA KEY               74 75   80/  9/ 11 1019.3F
LAKE WORTH                 74 76  130/ 13/ 15 1021.3F
FOWEY ROCKS                74 77   90/ 14/ 15 1020.3F
SETTLEMENT POINT           72      90/ 12/ 13 1020.9F

$$